DW2182 Weather Reports


time (UTC)temp
C
wind
direction
speed
KPH
gust
KPH
rain 1hr
cm
rain 24hr
cm
rain mn
cm
humidity
%
barometer
mb
20260831115516 21 0.0 0.0 0.00 0.00 0.00 97 1008.5
20260831114518 21 90 1.6 3.2 0.00 0.00 0.00 96 1008.4
20260831113516 21 0.0 1.6 0.00 0.00 0.00 96 1008.4
20260831112518 21 0.0 4.8 0.00 0.00 0.00 96 1008.4
20260831111516 21 0.0 0.0 0.00 0.00 0.00 96 1008.4
20260831110538 21 0.0 0.0 0.00 0.00 0.00 96 1008.3
20260831105538 21 0.0 0.0 0.00 0.00 0.00 96 1007.8
20260831104516 21 0.0 0.0 0.00 0.00 0.00 96 1008.1
20260831103518 21 0.0 0.0 0.00 0.00 0.00 96 1007.8
20260831102538 21 0.0 0.0 0.00 0.00 0.00 97 1007.4
20260831101518 21 90 1.6 6.4 0.00 0.00 0.00 96 1007.4
20260831100518 21 90 1.6 4.8 0.00 0.00 0.00 96 1007.2
20260831095518 21 90 3.2 6.4 0.00 0.00 0.00 97 1007.6
20260831094519 21 90 1.6 4.8 0.00 0.00 0.00 96 1007.7
20260831093538 21 90 3.2 6.4 0.00 0.00 0.00 96 1007.8
20260831092518 21 90 4.8 11.3 0.00 0.00 0.00 96 1007.6
20260831091518 21 90 4.8 9.7 0.00 0.00 0.00 96 1007.6
20260831090519 21 90 6.4 11.3 0.00 0.00 0.00 96 1007.7
20260831085518 21 90 4.8 9.7 0.00 0.00 0.00 96 1007.7
20260831084517 21 90 6.4 9.7 0.00 0.00 0.00 96 1007.7
20260831083538 21 90 6.4 11.3 0.00 0.00 0.00 96 1007.6
20260831082518 21 90 4.8 9.7 0.00 0.00 0.00 96 1007.6
20260831081518 21 90 4.8 9.7 0.00 0.00 0.00 96 1007.3
20260831080517 22 90 4.8 9.7 0.00 0.00 0.00 96 1007.4
20260831075518 22 90 4.8 9.7 0.00 0.00 0.00 96 1007.6
20260831074517 22 68 4.8 11.3 0.00 0.00 0.00 96 1007.6
20260831073517 22 90 3.2 4.8 0.00 0.00 0.00 96 1007.5
20260831072518 22 90 1.6 6.4 0.00 0.00 0.00 96 1007.5
20260831071518 22 90 3.2 4.8 0.00 0.00 0.00 96 1007.5
20260831070518 22 90 4.8 9.7 0.00 0.00 0.00 95 1007.6
20260831065518 22 90 4.8 9.7 0.00 0.00 0.00 95 1007.6
20260831064517 22 90 4.8 11.3 0.00 0.00 0.00 95 1007.6
20260831063519 22 68 3.2 8.0 0.00 0.00 0.00 95 1007.5
20260831062518 22 68 3.2 6.4 0.00 0.00 0.00 95 1007.7
20260831061517 22 90 3.2 9.7 0.00 0.00 0.00 95 1007.7
20260831060537 22 68 3.2 8.0 0.00 0.00 0.00 95 1007.9
20260831055517 22 90 3.2 9.7 0.00 0.00 0.00 94 1007.8
20260831054537 22 90 4.8 11.3 0.00 0.00 0.00 94 1007.8
20260831053517 23 90 4.8 12.9 0.00 0.00 0.00 94 1007.9
20260831052517 23 90 4.8 11.3 0.00 0.00 0.00 94 1008.0
20260831051537 23 90 6.4 14.5 0.00 0.00 0.00 94 1008.0
20260831050537 23 68 4.8 14.5 0.00 0.00 0.00 93 1008.0
20260831045517 23 90 4.8 12.9 0.00 0.00 0.00 93 1008.1
20260831044518 23 90 6.4 12.9 0.00 0.00 0.00 92 1008.0
20260831043518 23 90 9.7 19.3 0.00 0.00 0.00 92 1008.0
20260831042518 23 90 6.4 17.7 0.00 0.00 0.00 92 1007.9
20260831041539 23 90 6.4 12.9 0.00 0.00 0.00 92 1007.9
20260831040517 23 90 6.4 14.5 0.00 0.00 0.00 91 1007.8
20260831035518 23 90 4.8 11.3 0.00 0.00 0.00 91 1007.7
20260831034538 23 90 6.4 16.1 0.00 0.00 0.00 91 1007.6
20260831033518 23 90 4.8 19.3 0.00 0.00 0.00 90 1007.4
20260831032518 23 90 6.4 12.9 0.00 0.00 0.00 90 1007.5
20260831031518 23 90 9.7 24.1 0.00 0.00 0.00 90 1007.5
20260831030518 24 90 8.0 14.5 0.00 0.00 0.00 89 1007.4
20260831025517 24 90 8.0 20.9 0.00 0.00 0.00 89 1007.4
20260831024517 24 90 6.4 14.5 0.00 0.00 0.00 88 1007.5
20260831023518 25 90 4.8 14.5 0.00 0.00 0.00 88 1007.6
20260831022537 25 90 6.4 12.9 0.00 0.00 0.00 87 1007.5
20260831021557 25 90 6.4 12.9 0.00 0.00 0.00 86 1007.5
20260831020618 25 68 6.4 14.5 0.00 0.00 0.00 85 1007.5
20260831015537 25 68 4.8 12.9 0.00 0.00 0.00 85 1007.5
20260831014517 26 68 4.8 12.9 0.00 0.00 0.00 85 1007.3
20260831013517 26 90 4.8 12.9 0.00 0.00 0.00 84 1007.3
20260831012517 26 90 3.2 11.3 0.00 0.00 0.00 83 1007.2
20260831011617 26 90 3.2 9.7 0.00 0.00 0.00 83 1007.0
20260831010537 26 90 3.2 9.7 0.00 0.00 0.00 83 1007.0
20260831005517 27 90 3.2 11.3 0.00 0.00 0.00 82 1007.0
20260831004517 27 68 4.8 14.5 0.00 0.00 0.00 81 1007.0
20260831003517 27 68 4.8 11.3 0.00 0.00 0.00 80 1007.1
20260831002637 27 90 4.8 12.9 0.00 0.00 0.00 79 1007.0
20260831001517 28 90 8.0 20.9 0.00 0.00 0.00 78 1007.2
20260831000517 28 90 6.4 14.5 0.00 0.00 0.00 78 1007.0
20260830235517 28 68 6.4 14.5 0.00 0.00 0.00 78 1006.9
20260830234538 28 68 4.8 8.0 0.00 0.00 0.00 77 1006.9
20260830233517 28 68 4.8 11.3 0.00 0.00 0.00 77 1006.8
20260830232517 29 68 3.2 12.9 0.00 0.00 0.00 77 1006.6
20260830231517 29 68 4.8 14.5 0.00 0.00 0.00 76 1006.7
20260830230557 29 68 3.2 11.3 0.00 0.00 0.00 78 1006.7
20260830225517 29 68 4.8 8.0 0.00 0.00 0.00 76 1006.6
20260830224517 30 68 3.2 8.0 0.00 0.00 0.00 76 1006.5
20260830223517 29 68 3.2 6.4 0.00 0.00 0.00 77 1006.4
20260830222517 29 68 3.2 8.0 0.00 0.00 0.00 76 1006.5
20260830221517 29 68 3.2 11.3 0.00 0.00 0.00 75 1006.6
20260830220517 29 90 3.2 11.3 0.00 0.00 0.00 74 1006.6
20260830215557 30 68 8.0 16.1 0.00 0.00 0.00 73 1006.5
20260830214516 31 90 8.0 19.3 0.00 0.00 0.00 71 1006.7
20260830213517 31 68 6.4 16.1 0.00 0.00 0.00 70 1006.8
20260830212518 30 90 8.0 14.5 0.00 0.00 0.00 70 1006.9
20260830211517 31 90 14.5 25.7 0.00 0.00 0.00 65 1007.0
20260830210516 31 90 11.3 19.3 0.00 0.00 0.00 67 1007.0
20260830205537 32 90 11.3 22.5 0.00 0.00 0.00 67 1006.9
20260830204517 32 90 8.0 22.5 0.00 0.00 0.00 67 1006.9
20260830203557 32 90 6.4 17.7 0.00 0.00 0.00 64 1006.9
20260830202537 32 68 8.0 17.7 0.00 0.00 0.00 66 1006.8
20260830201536 32 68 4.8 14.5 0.00 0.00 0.00 64 1007.0
20260830200516 32 90 9.7 19.3 0.00 0.00 0.00 63 1006.7
20260830195537 32 68 4.8 8.0 0.00 0.00 0.00 64 1006.7
20260830194516 32 90 8.0 16.1 0.00 0.00 0.00 62 1006.8
20260830193537 31 68 6.4 19.3 0.00 0.00 0.00 66 1006.9
20260830192516 31 90 6.4 12.9 0.00 0.00 0.00 67 1006.9
20260830191516 31 68 6.4 14.5 0.00 0.00 0.00 67 1006.8
20260830190516 31 68 4.8 9.7 0.00 0.00 0.00 70 1006.9
20260830185537 31 90 6.4 12.9 0.00 0.00 0.00 70 1007.1
20260830184516 30 68 3.2 8.0 0.00 0.00 0.00 72 1007.0
20260830183517 31 68 3.2 8.0 0.00 0.00 0.00 69 1007.0
20260830182537 31 90 3.2 12.9 0.00 0.00 0.00 70 1007.1
20260830181516 30 68 3.2 9.7 0.00 0.00 0.00 72 1007.3
20260830180517 30 68 4.8 9.7 0.00 0.00 0.00 72 1007.4
20260830175516 30 68 1.6 4.8 0.00 0.00 0.00 72 1007.5
20260830174517 30 68 3.2 6.4 0.00 0.00 0.00 71 1007.4
20260830173517 30 68 3.2 6.4 0.00 0.00 0.00 70 1007.3
20260830172517 30 68 3.2 8.0 0.00 0.00 0.00 72 1007.4
20260830171537 30 68 1.6 6.4 0.00 0.00 0.00 72 1007.7
20260830170516 29 68 1.6 6.4 0.00 0.00 0.00 75 1007.8
20260830165516 28 68 3.2 6.4 0.00 0.00 0.00 75 1007.9
20260830164516 29 68 3.2 6.4 0.00 0.00 0.00 75 1008.2
20260830163517 28 90 1.6 8.0 0.00 0.00 0.00 76 1008.2
20260830162537 28 68 4.8 16.1 0.00 0.03 0.00 79 1008.3
20260830161517 27 90 6.4 12.9 0.00 0.03 0.00 78 1008.3
20260830160516 27 90 4.8 11.3 0.00 0.03 0.00 79 1008.0
20260830155556 27 45 1.6 4.8 0.00 0.03 0.00 80 1007.9
20260830154516 26 90 3.2 4.8 0.00 0.03 0.00 82 1007.9
20260830153517 26 90 1.6 9.7 0.00 0.03 0.00 81 1007.7
20260830152537 26 90 1.6 6.4 0.00 0.03 0.00 83 1007.7
20260830151516 26 90 3.2 6.4 0.00 0.03 0.00 84 1007.8
20260830150537 25 0.0 0.0 0.00 0.03 0.00 85 1007.6
20260830145516 25 0.0 0.0 0.00 0.03 0.00 87 1007.5
20260830144516 25 68 3.2 6.4 0.00 0.03 0.00 87 1007.6
20260830143516 24 68 1.6 4.8 0.00 0.03 0.00 89 1007.5
20260830142516 23 90 3.2 6.4 0.00 0.03 0.00 89 1007.5
20260830141516 23 68 1.6 4.8 0.00 0.03 0.00 90 1007.5
20260830140516 23 0.0 9.7 0.00 0.03 0.00 90 1007.4
20260830135516 23 68 1.6 4.8 0.00 0.03 0.00 91 1007.6
20260830134516 22 68 1.6 4.8 0.00 0.03 0.00 91 1007.5
20260830133516 22 0.0 3.2 0.00 0.03 0.00 93 1007.4
20260830132516 22 0.0 0.0 0.00 0.03 0.00 94 1007.4
20260830131516 21 68 1.6 4.8 0.00 0.03 0.00 94 1007.4
20260830130516 21 0.0 4.8 0.00 0.03 0.00 95 1007.5
20260830125536 21 0.0 3.2 0.00 0.03 0.00 96 1007.6
20260830124557 20 0.0 4.8 0.00 0.03 0.00 96 1007.4
20260830123517 20 0.0 0.0 0.00 0.03 0.00 96 1007.4
20260830122516 20 0.0 0.0 0.00 0.03 0.00 96 1007.6
20260830121516 20 0.0 0.0 0.00 0.03 0.00 97 1007.7
20260830120517 20 0.0 0.0 0.00 0.03 0.00 97 1007.4